Wind_Speed
17 16 14 11 11 9 8 6 4 2 0 1 2 3 4 5 5 6 6 7 8 8 9 8 8 8 7 7 8 8 9 8 7 6 5 5 4 4 3 2 2 1 1 2
19 17 15 15 14 12 10 8 6 4 3 2 2 2 2 4 5 5 5 6 6 6 7 7 7 8 7 6 6 7 8 8 7 7 6 5 4 3 3 3 2 3 2 2
20 18 19 18 17 15 12 10 8 7 6 4 5 4 3 3 4 5 5 5 5 4 5 5 5 6 5 5 5 5 6 6 6 6 5 4 4 3 2 2 3 3 3 3
22 21 22 21 19 17 15 13 11 10 9 7 6 5 4 4 4 5 5 5 4 3 4 4 4 4 4 4 3 4 5 5 5 5 4 5 4 3 2 2 2 2 3 4
23 23 23 23 20 19 17 16 15 13 11 9 8 7 6 6 5 6 6 5 4 4 4 4 4 3 3 3 3 4 4 5 5 5 4 5 4 4 3 2 2 2 3 4
25 25 24 23 23 21 20 19 18 16 14 12 9 9 7 7 7 7 7 6 5 5 4 4 4 4 3 3 3 4 4 5 5 5 5 5 4 4 4 3 3 3 4 5
27 26 25 24 24 24 22 21 20 19 17 15 12 12 10 8 8 8 8 8 6 6 5 4 4 5 4 3 3 3 4 5 4 4 5 5 5 5 5 5 5 5 5 6
27 27 27 26 26 24 23 23 22 21 20 17 16 14 11 10 10 10 10 8 7 6 6 5 5 5 4 4 4 4 4 4 5 4 5 5 5 5 6 6 6 6 7 7
26 26 27 27 26 26 26 25 23 23 22 20 18 15 13 12 11 10 9 9 8 8 8 7 6 6 6 5 5 5 5 5 5 5 5 6 6 6 7 7 7 8 8 9
24 25 25 26 27 28 28 26 25 24 23 22 20 17 15 14 12 11 10 9 9 9 10 9 8 7 7 7 7 7 7 6 6 6 7 7 7 8 8 8 9 9 10 10
25 26 26 27 27 27 28 28 26 25 24 23 21 19 16 15 14 13 12 12 11 10 10 11 10 9 8 9 9 9 8 8 8 7 8 8 9 9 9 10 10 11 11 12
26 27 27 27 28 27 28 28 27 27 25 24 23 20 17 16 14 13 13 12 12 12 12 11 11 10 10 11 10 10 10 10 9 9 9 10 11 11 11 11 12 12 12 13
26 27 28 29 29 29 30 28 27 27 27 26 25 22 19 18 16 14 14 13 13 12 12 12 12 12 12 12 12 12 11 11 10 10 10 10 11 11 12 12 13 13 14 14
29 29 29 29 29 30 31 29 28 28 28 27 26 24 22 20 18 17 16 14 13 12 13 14 13 14 14 13 13 13 13 13 13 12 12 12 12 12 13 14 15 15 15 16
31 30 30 30 30 31 31 30 29 29 30 29 28 27 24 22 20 18 17 16 14 14 14 15 15 15 14 14 14 14 14 15 16 15 15 14 14 14 15 16 16 17 17 18
32 31 31 31 31 32 32 32 31 30 31 31 30 29 27 25 22 19 18 17 17 17 16 16 17 17 17 16 17 17 17 18 18 18 18 18 17 17 17 17 18 18 19 20
33 31 32 33 32 33 33 32 31 31 31 31 30 29 27 27 24 22 20 19 19 18 17 18 19 20 19 18 18 19 19 19 19 19 19 18 18 18 18 18 19 20 21 21
34 33 32 33 33 36 33 32 31 31 31 30 29 28 27 26 24 23 22 21 21 21 21 20 20 19 19 20 20 20 20 20 21 21 21 20 20 20 20 20 21 22 22 23
34 34 34 33 34 35 33 32 31 31 30 29 28 28 27 26 25 25 23 22 22 22 23 22 21 21 21 21 21 21 21 22 22 23 23 22 22 22 22 22 23 24 25 25
35 35 34 33 33 34 31 31 31 31 30 29 29 29 28 27 26 25 24 24 24 24 24 24 23 24 23 23 23 23 23 24 25 25 25 25 24 24 25 26 26 26 27 27
37 36 35 34 34 34 32 31 30 31 30 29 29 29 28 28 26 25 26 26 25 25 25 25 25 25 24 24 24 25 26 26 26 26 26 27 26 27 27 27 26 27 28 29
36 36 36 35 35 34 32 31 31 30 29 29 28 28 27 27 27 27 28 27 26 26 26 27 27 27 26 26 26 27 27 27 27 27 27 28 28 28 28 29 29 29 30 30
34 35 34 35 35 34 32 30 30 29 29 29 28 28 28 27 28 29 29 28 28 28 28 28 28 28 28 28 28 28 28 28 27 28 28 29 29 29 30 30 30 30 30 31
34 34 33 33 33 34 33 30 30 30 30 29 29 29 28 28 29 28 28 28 28 28 28 29 30 29 29 29 29 29 30 29 29 29 29 30 30 30 31 31 31 31 31 32
33 34 33 33 32 32 32 30 29 28 28 28 28 30 30 29 30 30 29 29 29 28 28 29 30 30 30 29 29 29 30 30 30 30 30 31 31 31 31 31 31 32 32 32
31 32 33 32 31 31 30 30 28 27 26 27 28 29 30 30 30 30 30 29 29 29 30 30 30 30 30 30 30 31 32 32 32 32 32 32 31 31 32 32 33 33 33 33
Wind_Direction
217 214 208 205 208 210 213 206 197 206 9 49 59 41 27 20 24 25 36 46 51 54 55 52 52 53 59 63 60 52 54 54 54 52 48 54 51 47 49 49 48 31 27 18
218 214 209 209 211 214 216 213 213 228 253 275 308 338 350 355 14 16 21 28 40 47 50 49 49 50 52 54 47 50 54 52 52 49 47 44 40 31 28 16 14 13 0 350
219 214 213 212 213 217 218 217 219 231 237 257 292 299 304 324 344 357 3 13 22 26 37 39 37 35 34 34 34 43 47 45 45 43 40 37 30 23 22 7 5 7 1 346
219 215 216 215 215 220 222 221 225 236 245 258 274 290 289 303 321 336 339 343 1 358 1 13 23 21 22 16 24 26 33 32 35 36 33 26 29 24 15 14 17 9 352 341
221 218 219 218 218 223 222 224 229 236 249 257 265 278 296 302 308 314 322 328 333 331 323 329 331 339 356 357 3 10 6 14 20 24 20 15 15 11 11 3 353 337 330 328
220 219 220 218 218 222 224 227 231 238 246 252 261 270 282 298 305 306 309 309 309 313 307 304 308 325 329 339 351 350 343 347 359 359 359 357 349 340 343 332 318 316 311 309
221 221 220 218 219 223 226 230 235 241 246 252 257 264 272 285 297 298 297 299 296 299 303 300 309 321 314 314 312 315 322 330 338 341 343 345 341 335 329 323 308 307 307 305
223 222 222 222 223 226 228 232 239 247 252 254 257 263 268 280 288 290 291 295 292 291 294 292 293 296 292 289 290 301 310 313 316 320 325 330 331 332 329 325 317 307 303 302
227 225 226 226 225 226 228 231 237 245 251 254 258 261 263 275 281 281 286 292 296 288 284 284 283 290 281 277 284 298 307 311 312 311 310 312 314 317 317 314 312 307 300 297
226 226 225 226 226 226 229 232 236 242 248 255 258 260 266 270 274 277 285 290 291 284 280 283 283 286 277 273 280 292 300 304 305 302 301 302 302 303 307 307 306 304 301 298
226 227 224 225 226 228 229 231 234 241 247 253 258 261 265 271 276 278 281 286 284 283 283 282 283 283 277 271 276 283 288 293 295 291 291 292 293 295 301 305 306 307 305 301
226 228 227 226 227 230 232 233 236 241 247 251 257 259 261 265 272 280 283 285 281 280 278 279 281 280 275 273 273 276 281 285 287 286 287 284 289 291 294 298 301 305 306 303
226 228 230 229 229 231 234 235 238 242 245 251 255 257 260 266 269 274 279 281 278 276 274 276 280 279 277 274 276 275 277 282 282 281 280 283 289 292 292 294 299 301 302 302
229 231 233 234 235 235 237 238 239 241 243 248 253 257 260 265 268 270 271 274 273 268 269 274 281 280 278 276 276 281 278 276 276 277 281 283 286 287 291 295 297 299 298 299
232 233 234 236 237 237 239 241 241 243 245 249 253 256 260 265 269 269 267 266 268 270 275 279 280 281 283 282 278 280 284 280 276 275 278 279 282 285 287 291 294 296 297 297
234 235 235 237 239 241 241 242 244 246 247 249 252 254 259 264 267 268 265 265 268 273 279 281 280 280 282 283 280 277 281 282 279 277 279 281 283 289 287 288 292 295 296 296
236 238 239 239 240 243 243 244 246 247 248 250 252 255 259 264 266 266 266 265 267 271 277 278 279 280 278 277 280 280 280 282 284 285 285 284 285 289 288 288 291 293 295 295
239 240 242 242 241 244 245 245 246 248 248 249 251 254 257 260 263 263 264 266 269 270 273 274 277 277 276 277 278 282 281 282 284 284 284 285 285 286 285 285 288 290 292 292
238 240 242 243 244 245 245 245 244 246 247 248 252 255 257 258 261 261 263 266 269 271 271 272 273 273 275 277 278 281 283 282 283 282 283 284 283 283 284 285 286 288 290 290
236 239 241 242 244 245 245 245 245 246 247 246 251 253 256 260 260 262 263 265 269 271 271 270 273 275 276 278 279 279 282 281 281 280 281 284 285 283 283 285 284 287 288 288
235 237 239 241 244 245 245 244 244 246 246 247 249 251 254 258 259 261 262 264 268 270 270 271 274 275 276 277 279 280 283 283 281 280 281 283 286 286 285 285 287 288 288 287
237 238 239 241 243 245 245 245 245 246 246 248 249 251 255 259 260 260 260 263 266 268 270 271 273 274 275 277 280 282 285 285 283 281 282 284 285 286 286 286 288 290 290 289
238 239 240 241 243 244 246 246 245 245 247 248 249 253 255 257 259 259 260 263 265 266 267 269 272 273 274 276 279 282 284 283 283 284 285 286 287 286 285 286 287 289 290 289
236 237 239 239 242 244 245 245 245 247 247 248 250 250 253 256 259 260 261 262 264 264 265 269 272 273 275 276 277 279 282 282 283 285 286 287 286 286 285 285 286 288 290 289
235 237 238 240 241 242 243 246 245 246 248 249 249 252 254 256 258 260 261 262 263 263 266 270 272 274 277 278 279 280 282 282 282 284 285 286 287 286 285 285 286 287 287 288
237 240 241 241 241 242 242 244 243 244 245 248 250 252 256 257 258 259 261 261 262 263 265 269 273 276 278 278 279 280 280 280 280 282 283 284 284 285 285 284 284 285 286 287
Height
5889 5893 5895 5897 5899 5900 5900 5901 5902 5903 5902 5902 5902 5902 5902 5902 5901 5900 5899 5897 5896 5895 5894 5893 5891 5890 5890 5889 5888 5888 5887 5886 5885 5884 5884 5884 5884 5883 5883 5882 5882 5881 5881 5881
5888 5891 5894 5895 5897 5898 5899 5901 5902 5902 5902 5902 5902 5903 5902 5902 5901 5901 5900 5898 5897 5896 5895 5894 5893 5892 5891 5890 5889 5889 5888 5887 5886 5886 5885 5885 5884 5884 5883 5883 5882 5882 5881 5880
5886 5891 5891 5893 5895 5897 5898 5900 5901 5901 5901 5901 5902 5903 5903 5902 5901 5901 5900 5899 5898 5897 5896 5895 5894 5893 5892 5891 5890 5889 5889 5888 5888 5887 5886 5885 5885 5884 5884 5883 5882 5882 5881 5880
5883 5886 5888 5890 5893 5895 5897 5899 5899 5900 5900 5900 5901 5901 5902 5902 5901 5901 5900 5899 5898 5897 5896 5895 5894 5893 5892 5891 5891 5890 5889 5889 5888 5887 5886 5886 5885 5885 5884 5883 5883 5882 5882 5881
5880 5883 5885 5888 5891 5893 5895 5896 5897 5898 5898 5899 5899 5900 5901 5900 5900 5900 5900 5899 5898 5897 5896 5895 5894 5893 5892 5892 5891 5890 5889 5888 5888 5887 5887 5886 5885 5885 5884 5883 5882 5882 5881 5880
5876 5879 5882 5885 5888 5890 5892 5893 5894 5895 5896 5897 5898 5898 5899 5899 5899 5899 5898 5898 5897 5896 5895 5894 5893 5892 5892 5891 5891 5890 5889 5888 5888 5887 5886 5886 5885 5884 5884 5883 5882 5881 5880 5880
5872 5875 5878 5881 5884 5886 5888 5891 5892 5892 5893 5895 5896 5896 5898 5898 5898 5897 5897 5896 5896 5895 5894 5893 5893 5892 5892 5891 5891 5890 5889 5888 5888 5887 5886 5885 5884 5883 5883 5882 5881 5880 5879 5879
5867 5871 5874 5877 5880 5882 5884 5887 5889 5890 5891 5893 5893 5894 5896 5896 5896 5895 5895 5895 5894 5894 5893 5892 5892 5891 5891 5891 5890 5889 5888 5887 5887 5886 5885 5884 5883 5882 5882 5881 5880 5879 5878 5877
5862 5867 5870 5873 5876 5879 5880 5883 5885 5887 5888 5889 5890 5892 5893 5893 5894 5894 5893 5893 5893 5892 5891 5891 5890 5890 5890 5889 5889 5888 5887 5887 5886 5885 5884 5883 5882 5881 5880 5879 5878 5877 5876 5875
5858 5862 5865 5868 5871 5873 5876 5879 5881 5882 5883 5884 5886 5888 5890 5891 5892 5892 5892 5891 5891 5890 5890 5889 5889 5888 5888 5888 5887 5887 5886 5885 5884 5884 5883 5881 5880 5879 5878 5877 5876 5875 5874 5873
5852 5856 5860 5862 5865 5868 5871 5874 5876 5878 5879 5881 5882 5886 5887 5888 5889 5889 5889 5889 5889 5888 5888 5887 5887 5886 5886 5886 5885 5885 5884 5883 5882 5881 5880 5879 5878 5877 5876 5875 5874 5872 5871 5870
5847 5850 5854 5857 5861 5863 5866 5869 5872 5874 5875 5877 5878 5884 5884 5885 5885 5886 5886 5886 5885 5885 5885 5884 5884 5883 5883 5883 5883 5882 5881 5880 5879 5878 5877 5876 5875 5874 5873 5872 5871 5870 5868 5867
5842 5845 5848 5852 5856 5858 5860 5863 5866 5869 5871 5872 5874 5879 5879 5881 5881 5882 5882 5882 5882 5881 5881 5881 5881 5880 5880 5880 5880 5879 5878 5877 5876 5875 5874 5872 5872 5871 5870 5869 5868 5867 5865 5863
5836 5839 5843 5846 5849 5852 5854 5857 5860 5863 5865 5866 5869 5872 5875 5876 5877 5878 5878 5879 5878 5878 5878 5878 5878 5877 5877 5876 5876 5875 5875 5874 5873 5872 5870 5869 5869 5868 5867 5866 5865 5863 5861 5860
5829 5833 5836 5840 5843 5846 5848 5851 5854 5857 5859 5861 5864 5866 5869 5871 5873 5874 5874 5875 5875 5874 5874 5874 5874 5873 5873 5873 5872 5872 5871 5870 5869 5868 5867 5865 5865 5864 5863 5862 5861 5859 5857 5856
5823 5826 5829 5833 5836 5839 5841 5845 5847 5851 5853 5856 5858 5861 5863 5865 5867 5868 5869 5870 5870 5870 5870 5869 5869 5869 5869 5868 5868 5867 5867 5866 5865 5864 5863 5862 5861 5860 5859 5857 5856 5855 5853 5851
5816 5820 5823 5826 5829 5831 5834 5839 5841 5844 5847 5850 5852 5856 5857 5859 5861 5863 5864 5865 5865 5865 5865 5864 5864 5864 5864 5864 5863 5862 5861 5861 5860 5859 5858 5857 5856 5855 5854 5852 5851 5850 5848 5846
5809 5812 5815 5818 5822 5824 5830 5832 5835 5837 5840 5843 5846 5849 5851 5853 5854 5856 5858 5859 5859 5859 5859 5858 5858 5858 5858 5858 5858 5857 5856 5855 5855 5854 5853 5852 5851 5850 5848 5847 5846 5844 5842 5840
5802 5805 5808 5810 5813 5816 5822 5825 5827 5830 5833 5837 5839 5842 5844 5846 5848 5849 5851 5852 5853 5853 5852 5852 5852 5852 5852 5852 5851 5851 5850 5849 5848 5848 5847 5846 5844 5843 5842 5840 5839 5838 5836 5834
5793 5797 5801 5803 5806 5809 5815 5818 5820 5824 5826 5830 5832 5834 5837 5839 5841 5844 5844 5845 5846 5845 5845 5845 5845 5844 5844 5844 5844 5844 5843 5843 5842 5841 5840 5839 5838 5836 5835 5833 5832 5831 5829 5827
5785 5789 5792 5795 5798 5802 5807 5810 5814 5817 5821 5823 5825 5827 5829 5832 5834 5837 5837 5837 5838 5838 5838 5838 5838 5837 5837 5837 5837 5836 5836 5835 5834 5833 5832 5832 5830 5829 5827 5825 5823 5821 5820 5819
5777 5781 5785 5788 5792 5797 5800 5803 5806 5809 5813 5815 5818 5820 5822 5824 5826 5828 5829 5830 5830 5830 5831 5831 5830 5830 5829 5829 5829 5828 5827 5826 5826 5825 5824 5824 5822 5821 5819 5817 5815 5813 5811 5810
5770 5774 5777 5781 5786 5789 5791 5795 5798 5801 5805 5808 5810 5813 5815 5817 5818 5819 5820 5821 5822 5823 5823 5823 5822 5822 5822 5821 5821 5820 5819 5818 5817 5817 5816 5815 5814 5812 5811 5809 5807 5806 5804 5802
5762 5766 5769 5773 5777 5781 5784 5788 5791 5794 5797 5800 5802 5805 5807 5809 5810 5811 5812 5813 5814 5814 5815 5815 5814 5814 5814 5813 5813 5812 5811 5809 5809 5808 5807 5806 5805 5803 5802 5800 5799 5798 5796 5794
5754 5758 5762 5765 5769 5773 5777 5780 5783 5786 5789 5791 5794 5796 5799 5800 5802 5803 5804 5805 5805 5806 5806 5806 5806 5805 5805 5804 5804 5803 5802 5800 5800 5799 5798 5797 5796 5794 5793 5791 5790 5789 5787 5785
5748 5752 5755 5759 5762 5766 5770 5772 5775 5778 5781 5784 5786 5788 5790 5792 5793 5794 5795 5796 5797 5797 5797 5797 5797 5796 5796 5795 5794 5793 5792 5791 5790 5789 5788 5787 5786 5785 5784 5782 5781 5779 5778 5776